Patrick AFB, FL

4:42 AM EST on February 27, 2017 (GMT -0500)
Patrick Air Force Base

Weather History for KCOF - August, 2014

Change the Weather History Date:

Thursday, August 14, 2014

  Actual Average Record
Temperature  
Mean Temperature 84 °F -  
Max Temperature 92 °F 85 °F 94 °F (2011)
Min Temperature 78 °F 75 °F 74 °F (2015)
Cooling Degree Days 20    
Growing Degree Days 34 (Base 50)    
Moisture  
Dew Point 76 °F    
Average Humidity 82    
Maximum Humidity 93    
Minimum Humidity 57    
Precipitation  
Precipitation 0.00 in - - ()
Sea Level Pressure  
Sea Level Pressure 30.02 in    
Wind  
Wind Speed 9 mph (SSW)    
Max Wind Speed 13 mph    
Max Gust Speed -    
Visibility 10 miles    
Events Thunderstorm    
Averages and records for this station are not official NWS values.
T = Trace of Precipitation, MM = Missing Value Source: NWS Daily Summary

Daily Weather History Graph

Daily Weather History Graph

Search for Another Location

Airport or City:

Trip Planner

Search our weather history database for the weather conditions in past years. The results will help you decide how hot, cold, wet, or windy it might be!

Date:

Astronomy

Aug. 14, 2014 Rise Set
Actual Time 6:51 AM EDT 8:02 PM EDT
Civil Twilight 6:26 AM EDT 8:26 PM EDT
Nautical Twilight 5:57 AM EDT 8:55 PM EDT
Astronomical Twilight 5:27 AM EDT 9:26 PM EDT
Moon 10:53 PM EDT (8/14) 10:59 AM EDT (8/14)
Length of Visible Light 13h 59m
Length of Day
13h 10m
Waning Gibbous, 79% of the Moon is Illuminated
Aug 14
Waning Gibbous
Aug 17
Last Quarter
Aug 25
New
Sep 2
First Quarter
Sep 8
Full

Hourly Weather History & Observations

Time (EDT) Temp. Heat Index Dew Point Humidity Pressure Visibility Wind Dir Wind Speed Gust Speed Precip Events Conditions
12:58 AM 81.1 °F 87.4 °F 75.6 °F 83% 30.03 in 10.0 mi SSW 12.7 mph - N/A   Clear
1:58 AM 80.8 °F 86.7 °F 75.6 °F 84% 30.01 in 10.0 mi SW 9.2 mph - N/A   Clear
2:58 AM 80.2 °F 86.0 °F 76.5 °F 88% 30.01 in 10.0 mi SW 8.1 mph - N/A   Clear
3:58 AM 79.9 °F - 76.5 °F 89% 30.01 in 10.0 mi WSW 8.1 mph - N/A   Clear
4:58 AM 79.3 °F - 76.3 °F 90% 30.01 in 10.0 mi WSW 6.9 mph - N/A   Clear
5:58 AM 79.2 °F - 76.5 °F 91% 30.01 in 10.0 mi WSW 9.2 mph - N/A   Clear
6:58 AM 78.6 °F - 76.5 °F 93% 30.01 in 10.0 mi WSW 8.1 mph - N/A   Clear
7:58 AM 79.0 °F - 76.8 °F 93% 30.04 in 10.0 mi WSW 8.1 mph - N/A   Clear
8:58 AM 81.9 °F 90.5 °F 78.1 °F 88% 30.06 in 10.0 mi WSW 6.9 mph - N/A   Clear
9:58 AM 84.9 °F 97.0 °F 78.4 °F 81% 30.04 in 10.0 mi WSW 8.1 mph - N/A   Clear
10:58 AM 88.2 °F 101.2 °F 77.5 °F 71% 30.06 in 10.0 mi West 8.1 mph - N/A   Clear
11:58 AM 89.4 °F 101.1 °F 76.5 °F 65% 30.06 in 10.0 mi West 6.9 mph - N/A   Clear
12:58 PM 91.9 °F 102.6 °F 74.8 °F 57% 30.04 in 10.0 mi SW 4.6 mph - N/A Thunderstorm Clear
1:58 PM 87.6 °F 100.8 °F 78.1 °F 73% 30.01 in 10.0 mi SE 10.4 mph - N/A   Clear
2:18 PM 84.2 °F 94.1 °F 77.0 °F 79% 30.00 in 10.0 mi SSE 10.4 mph - N/A Thunderstorm Thunderstorm
2:36 PM 84.2 °F 92.3 °F 75.2 °F 74% 29.99 in 10.0 mi South 12.7 mph - N/A Thunderstorm Partly Cloudy
2:38 PM 84.2 °F 92.3 °F 75.2 °F 74% 29.99 in 10.0 mi South 10.4 mph - N/A Thunderstorm Light Drizzle
2:47 PM 84.2 °F 92.3 °F 75.2 °F 74% 29.99 in 10.0 mi South 12.7 mph - N/A Thunderstorm Partly Cloudy
2:58 PM 82.8 °F 89.0 °F 73.8 °F 74% 29.99 in 10.0 mi South 12.7 mph - 0.00 in Thunderstorm Clear
3:34 PM 82.4 °F 89.5 °F 75.2 °F 79% 29.98 in 10.0 mi SSW 8.1 mph - N/A   Light Drizzle
3:49 PM 82.4 °F 90.9 °F 77.0 °F 84% 29.98 in 10.0 mi WSW 8.1 mph - N/A   Partly Cloudy
3:58 PM 82.4 °F 90.1 °F 76.1 °F 81% 30.01 in 10.0 mi WSW 8.1 mph - 0.00 in Thunderstorm Partly Cloudy
4:58 PM 82.8 °F 91.0 °F 76.3 °F 81% 30.01 in 10.0 mi WSW 5.8 mph - N/A   Partly Cloudy
5:11 PM 82.4 °F 89.5 °F 75.2 °F 79% 30.01 in 10.0 mi Calm Calm - N/A   Light Drizzle
5:52 PM 80.6 °F 86.2 °F 75.2 °F 84% 30.01 in 10.0 mi SSE 4.6 mph - N/A   Clear
5:58 PM 80.6 °F 86.4 °F 75.7 °F 85% 30.03 in 10.0 mi SSE 3.5 mph - 0.00 in   Clear
6:58 PM 79.7 °F - 74.7 °F 84% 30.01 in 10.0 mi South 5.8 mph - N/A   Clear
7:58 PM 79.3 °F - 74.5 °F 85% 30.01 in 10.0 mi South 5.8 mph - N/A   Clear
8:58 PM 79.3 °F - 74.5 °F 85% 30.03 in 10.0 mi SSW 6.9 mph - N/A   Clear
9:58 PM 78.8 °F - 74.7 °F 87% 30.03 in 10.0 mi South 4.6 mph - N/A   Clear
10:58 PM 78.6 °F - 74.8 °F 88% 30.04 in 10.0 mi SSW 11.5 mph - N/A   Clear
11:58 PM 79.0 °F - 75.2 °F 88% 30.03 in 10.0 mi SSW 9.2 mph - N/A   Clear